Location: Engle Ridge Observatory
(44.8122°N, 85.4398°W)
Time: 19:10:54
(UTC-05:00)

Daily predictions for brighter satellites

Satellite Brightness Start Highest point End
(mag) Time Altitude Azimuth Time Altitude Azimuth Time Altitude Azimuth
Aureole 3 4.0 17:29:24 10° N 17:34:01 75° E 17:39:55 10° SSE
Cosmos 1633 4.3 17:34:31 10° NE 17:36:37 15° ENE 17:38:43 10° ESE
CSL-04 Debris 4.3 17:32:59 10° SE 17:38:14 54° ENE 17:43:31 10° N
IDEFIX/ARIANE 42P 3.5 17:33:34 10° S 17:38:42 56° W 17:43:50 10° NNW
Cosmos 1437 3.1 17:37:05 10° SSE 17:40:06 41° E 17:43:07 10° NNE
BREEZE-M DEB (TANK) 2.2 17:41:21 10° WSW 17:43:36 87° SSE 17:46:30 10° ENE
Cosmos 1833 Rocket 3.5 17:39:01 10° N 17:43:52 28° NE 17:48:39 10° ESE
Cosmos 1908 Rocket 4.2 17:42:14 10° N 17:46:10 32° ENE 17:50:04 10° SE
Cosmos 1733 Rocket 3.0 17:43:07 10° N 17:47:34 79° E 17:52:01 10° SSE
BREEZE-M DEB (TANK) 2.6 17:46:23 10° NW 17:48:13 29° NNE 17:50:25 10° ENE
Cosmos 1844 3.8 17:43:42 10° SSW 17:49:29 90° WNW 17:55:20 10° NNE
CENTAUR R/B 2.8 17:46:52 10° SW 17:52:59 75° NW 18:00:01 10° NE
Cosmos 2233 Rocket 4.1 17:47:17 10° SSE 17:53:21 55° E 17:59:24 10° NNE
Cosmos 2278 Rocket 2.5 17:48:46 10° S 17:54:12 50° ESE 17:59:41 10° NE
Cosmos 2263 Rocket 4.4 17:50:18 10° W 17:54:13 19° NW 17:58:09 10° N
SPOT 3 Rocket 4.5 17:51:33 10° ESE 17:55:48 26° ENE 18:00:02 10° N
ALOS 3.5 17:52:55 10° ESE 17:56:17 20° ENE 17:59:40 10° NNE
Meteor 1-26 Rocket 4.2 17:51:31 10° S 17:57:00 62° E 18:02:27 10° NNE
BREEZE-M DEB (TANK) 3.8 17:56:06 10° S 17:57:29 15° SE 17:58:52 11° E
ERBS 3.5 17:55:28 10° WNW 17:58:45 47° SW 18:02:01 10° SSE
Cosmos 2242 Rocket 3.8 17:54:29 10° S 17:59:02 80° W 18:03:35 10° N
CORIOLIS 4.2 17:54:55 10° SSE 18:00:18 65° ENE 18:05:42 10° N
Cosmos 1862 Rocket 3.5 17:56:30 10° S 18:00:56 82° E 18:05:25 10° N
Sich 1 Rocket 4.0 17:58:51 10° N 18:03:02 41° ENE 18:07:14 10° SSE
COSMOS 2455 2.9 17:57:03 10° SSW 18:03:03 89° SE 18:09:08 10° NNE
AQUARIUS 4.1 17:58:55 10° SSE 18:03:24 76° ENE 18:07:55 10° N
SMAP 3.0 17:59:41 10° SSE 18:04:19 80° ENE 18:09:00 10° N
Timation 1 Rocket 4.3 18:00:51 10° SSW 18:06:50 79° ESE 18:12:53 10° NNE
Meteor 1-28 Rocket 3.3 18:04:20 10° NNE 18:07:59 51° E 18:11:35 10° S
CZ-4 R/B 1.2 18:05:36 10° SSE 18:09:25 66° ENE 18:13:14 10° N
Cosmos 1933 4.5 18:06:42 10° SSW 18:10:35 46° WNW 18:14:29 10° N
Cosmos 1606 3.3 18:11:48 10° SSE 18:15:15 34° E 18:18:42 10° NNE
Okean 1-7 3.8 18:12:02 10° SSE 18:15:54 31° E 18:19:48 10° NNE
BREEZE-M R/B 2.3 18:13:55 10° WNW 18:16:30 78° SSW 18:20:30 10° ESE
Cosmos 1484 Rocket 3.1 18:13:40 10° S 18:17:30 70° WSW 18:21:27 10° NNW
CZ-4C R/B 3.4 18:11:50 10° NNW 18:18:07 36° NE 18:24:02 14° E
Landsat 4 3.9 18:15:52 10° NNE 18:19:34 49° E 18:23:15 10° S
EO 1 Del DPAF 3.9 18:19:24 15° NE 18:22:04 32° E 18:25:31 10° SSE
Cosmos 1763 Rocket 4.1 18:23:33 10° NNW 18:28:41 60° WSW 18:33:43 10° S
Cosmos 1782 Rocket 3.5 18:26:31 10° N 18:30:49 56° ENE 18:35:06 10° SSE
CZ-3A R/B 4.2 18:11:40 10° NW 18:31:03 88° NE 18:37:08 10° SE
Cosmos 2082 Rocket 2.2 18:26:37 10° NNW 18:32:17 60° ENE 18:37:51 10° SE
Meteor 2-6 Rocket 4.4 18:27:22 10° SSE 18:32:28 44° E 18:37:44 10° NNE
Meteor 1-20 Rocket 4.2 18:30:24 10° NNW 18:36:00 86° W 18:41:29 10° S
USA 116 3.9 18:31:46 10° NNE 18:36:21 87° WNW 18:40:20 10° SSW
Meteor 1-25 Rocket 4.4 18:30:32 10° NNW 18:36:24 79° W 18:42:11 10° S
COSMO-SKYMED 1 2.7 18:32:19 10° NNE 18:36:36 53° E 18:40:50 10° S
METEOR-M 4.0 18:31:46 10° SSE 18:37:06 77° ENE 18:42:27 10° N
Cosmos 1602 4.3 18:34:54 10° N 18:38:27 34° ENE 18:41:58 10° SE
YAOGAN 1 2.6 18:34:16 10° SSE 18:38:35 83° WSW 18:42:57 10° NNW
Cosmos 1782 2.7 18:36:19 10° S 18:40:19 70° E 18:44:18 10° NNE
SL-27 R/B 2.9 18:42:28 10° NNW 18:45:45 57° WSW 18:49:02 10° S
ERS-2 2.2 18:43:03 10° SSE 18:46:43 79° WSW 18:50:26 10° NNW
Cosmos 405 Rocket 3.2 18:44:37 10° SSE 18:47:47 37° ESE 18:47:47 37° ESE
Cosmos 1072 Rocket 4.4 18:43:29 10° S 18:49:39 72° E 18:55:59 10° NNE
Nadezhda 4 Rocket 4.2 18:44:22 10° N 18:50:09 41° ENE 18:55:52 10° SE
Cosmos 44 Rocket 3.3 18:47:53 10° NNW 18:52:42 59° NE 18:55:05 29° ESE
MTI 4.0 18:51:39 22° N 18:53:35 70° WNW 18:56:47 10° SSW
Cosmos 1503 Rocket 3.9 18:49:34 10° S 18:54:49 72° ESE 18:58:19 21° NNE
Cosmos 540 Rocket 3.4 18:50:01 10° NNW 18:55:14 89° WSW 19:00:23 10° SSE
Cosmos 2221 Rocket 3.4 18:51:13 10° S 18:55:37 76° E 18:59:20 14° NNE
Cosmos 2034 Rocket 4.1 18:50:15 10° SSE 18:56:25 55° E 19:02:36 10° NNE
Timation 2 Rocket 4.4 18:50:24 10° NNW 18:56:56 46° NE 19:00:00 28° ESE
Lacrosse 5 3.6 18:54:08 10° NW 18:57:58 21° N 18:59:43 18° NNE
CZ-2C R/B 4.4 18:53:44 10° N 18:58:05 52° WNW 19:02:29 10° SSW
USA 234 3.4 18:55:35 29° ENE 18:58:51 55° SE 19:05:13 10° SSW
Cosmos 968 Rocket 4.3 18:54:35 10° SSE 18:58:25 31° ESE 18:58:25 31° ESE
Cosmos 1703 Rocket 4.1 18:56:10 10° SSW 19:00:36 61° W 19:05:02 10° N
Meteor 1-27 Rocket 3.9 18:56:29 10° SSE 19:02:10 52° E 19:06:37 17° NNE
Cosmos 292 Rocket 3.6 18:58:05 10° NNW 19:02:51 69° ENE 19:06:28 17° SSE
DMSP B5D1-3 4.4 19:03:06 20° NNE 19:06:43 65° ESE 19:11:49 10° S
Cosmos 1092 Rocket 4.3 19:01:26 10° N 19:07:10 39° ENE 19:07:23 39° E
Meteor 2-20 4.3 19:02:09 10° N 19:08:15 69° E 19:14:16 10° SSE
Meteor 1-10 Rocket 4.3 19:05:24 10° SSW 19:11:05 84° W 19:16:55 10° N
Cosmos 1633 4.0 19:08:19 10° NNW 19:11:46 39° W 19:15:11 10° SSW
Okean 2 Rocket 3.1 19:08:20 10° N 19:12:54 81° W 19:17:25 10° S
FENGYUN 3A 3.7 19:11:51 10° S 19:17:16 79° WSW 19:22:43 10° NNW
Cosmos 44 3.3 19:16:18 10° NW 19:20:58 76° WSW 19:22:55 36° SSE
Cosmos 1464 Rocket 4.2 19:18:30 10° SSW 19:24:36 70° W 19:30:46 10° N
SKYMED 2 4.5 19:20:46 12° N 19:24:37 48° WNW 19:28:47 10° SW
Cosmos 1833 Rocket 3.5 19:22:37 10° NW 19:28:03 51° WSW 19:33:28 10° S
ALOS 3.1 19:28:50 10° S 19:33:22 50° W 19:37:56 10° NNW
Cosmos 2297 4.0 19:27:51 10° SW 19:33:32 66° WNW 19:36:14 32° N
Cosmos 2278 Rocket 3.9 19:33:39 10° WSW 19:38:32 29° NW 19:42:52 13° N
Meteor 1-11 Rocket 3.9 19:33:40 10° NNW 19:39:32 72° W 19:45:14 10° S
CENTAUR R/B 4.3 19:39:39 10° WNW 19:44:57 25° NNW 19:48:35 17° NNE
USA 229 DEB 4.4 19:43:17 10° S 19:47:40 37° SSE 19:47:40 37° SSE
USA 229 4.4 19:43:24 10° S 19:47:43 36° SSE 19:47:43 36° SSE
CZ-4C R/B 3.0 20:00:08 10° NW 20:07:17 72° WSW 20:09:18 52° S
Cosmos 2082 Rocket 4.5 20:11:39 10° NW 20:15:52 22° W 20:20:03 10° SSW
USA 234 3.9 20:42:57 50° WNW 20:42:57 50° WNW 20:48:12 10° WSW
